CFG7CF EDDL-LPMA

Flight info

Callsign CFG7CF
Flight time 3h 51m
Altitude 35000
Route MODRU7Z MODRU Z283 LNO DCT RASCA DCT FAMEN DCT ESTOC DCT PON DCT DITAL DCT GODIX DCT DIDAK DCT KURIS DCT TERPO DCT AZFIC DCT GATMO DCT LOTEE DCT AGADO DCT UBANI DCT TUNAV DCT TELMU DCT PECKY DCT LIDRO
Aircraft A21N/M-SBDE3FGHIJ1J4J7LORVWXYZ/SB2D1G1

Departure

Time 2026-05-07 05:19
Airport Düsseldorf Airport (EDDL)

Arrival

Time 2026-05-07 09:10
Airport Cristiano Ronaldo International Airport (LPMA)
Time Latitude Longitude Altitude Speed Heading
2026-05-07 04:23 51.27942 6.76166 136 ft 0 kts 91°
2026-05-07 05:07 51.27942 6.76157 136 ft 3 kts 91°
2026-05-07 05:07 51.27942 6.76152 136 ft 3 kts 91°
2026-05-07 05:07 51.27943 6.76120 136 ft 3 kts 91°
2026-05-07 05:07 51.27943 6.76087 136 ft 3 kts 91°
2026-05-07 05:08 51.27943 6.76055 136 ft 3 kts 91°
2026-05-07 05:08 51.27944 6.76023 135 ft 3 kts 91°
2026-05-07 05:08 51.27944 6.75991 135 ft 3 kts 91°
2026-05-07 05:08 51.27944 6.75959 135 ft 3 kts 91°
2026-05-07 05:09 51.27945 6.75927 135 ft 3 kts 91°
2026-05-07 05:09 51.27945 6.75894 135 ft 3 kts 91°
2026-05-07 05:09 51.27945 6.75862 135 ft 3 kts 91°
2026-05-07 05:09 51.27946 6.75831 135 ft 3 kts 91°
2026-05-07 05:10 51.27946 6.75830 135 ft 0 kts 91°
2026-05-07 05:10 51.27946 6.75848 135 ft 8 kts 91°
2026-05-07 05:10 51.27945 6.75992 135 ft 11 kts 90°
2026-05-07 05:10 51.27956 6.76048 135 ft 4 kts 24°
2026-05-07 05:11 51.27961 6.76048 135 ft 1 kts 358°
2026-05-07 05:14 51.27963 6.76048 135 ft 1 kts 357°
2026-05-07 05:14 51.27986 6.76046 135 ft 5 kts 358°
2026-05-07 05:15 51.28033 6.76048 135 ft 8 kts
2026-05-07 05:15 51.28090 6.76033 135 ft 9 kts 321°
2026-05-07 05:15 51.28090 6.75940 135 ft 9 kts 240°
2026-05-07 05:15 51.28049 6.75852 135 ft 10 kts 232°
2026-05-07 05:16 51.28004 6.75758 135 ft 11 kts 232°
2026-05-07 05:16 51.27956 6.75657 134 ft 12 kts 233°
2026-05-07 05:16 51.27906 6.75550 133 ft 12 kts 233°
2026-05-07 05:16 51.27858 6.75450 132 ft 6 kts 233°
2026-05-07 05:17 51.27840 6.75386 129 ft 7 kts 281°
2026-05-07 05:17 51.27874 6.75333 130 ft 7 kts 319°
2026-05-07 05:17 51.27918 6.75287 125 ft 8 kts 336°
2026-05-07 05:17 51.27971 6.75259 124 ft 8 kts
2026-05-07 05:18 51.28022 6.75329 127 ft 17 kts 51°
2026-05-07 05:18 51.28228 6.75761 136 ft 80 kts 52°
2026-05-07 05:18 51.28694 6.76741 136 ft 141 kts 53°
2026-05-07 05:18 51.29342 6.78130 425 ft 160 kts 52°
2026-05-07 05:19 51.30005 6.79585 1082 ft 165 kts 51°
2026-05-07 05:19 51.30713 6.81052 1811 ft 169 kts 49°
2026-05-07 05:19 51.31483 6.82635 2223 ft 190 kts 50°
2026-05-07 05:19 51.32300 6.84358 2639 ft 205 kts 50°
2026-05-07 05:20 51.33220 6.86307 2955 ft 228 kts 50°
2026-05-07 05:20 51.34203 6.88453 3337 ft 246 kts 50°
2026-05-07 05:20 51.35449 6.90298 3930 ft 250 kts 27°
2026-05-07 05:20 51.37117 6.91172 4663 ft 251 kts
2026-05-07 05:21 51.38831 6.91598 5384 ft 254 kts
2026-05-07 05:21 51.42365 6.92443 6792 ft 260 kts
2026-05-07 05:21 51.44164 6.92898 7434 ft 263 kts
2026-05-07 05:22 51.45986 6.93371 8074 ft 267 kts
2026-05-07 05:22 51.47850 6.93500 8681 ft 271 kts 351°
2026-05-07 05:22 51.49598 6.92408 9291 ft 275 kts 324°
2026-05-07 05:22 51.50860 6.90098 9869 ft 280 kts 298°
2026-05-07 05:23 51.51614 6.87156 10320 ft 291 kts 291°
2026-05-07 05:23 51.52293 6.84049 10563 ft 307 kts 290°
2026-05-07 05:23 51.53031 6.80744 10789 ft 323 kts 291°
2026-05-07 05:23 51.53829 6.77272 11006 ft 339 kts 291°
2026-05-07 05:24 51.54677 6.73646 11221 ft 354 kts 291°
2026-05-07 05:24 51.55398 6.69809 11646 ft 363 kts 280°
2026-05-07 05:24 51.55431 6.65738 12224 ft 368 kts 262°
2026-05-07 05:24 51.54651 6.61825 12834 ft 371 kts 245°
2026-05-07 05:25 51.53450 6.58133 13457 ft 374 kts 243°
2026-05-07 05:25 51.52206 6.54453 14040 ft 376 kts 243°
2026-05-07 05:25 51.50967 6.50729 14554 ft 379 kts 243°
2026-05-07 05:25 51.49740 6.46970 15059 ft 381 kts 243°
2026-05-07 05:26 51.48511 6.43184 15571 ft 384 kts 243°
2026-05-07 05:26 51.47257 6.39395 16081 ft 387 kts 240°
2026-05-07 05:26 51.45613 6.35963 16574 ft 391 kts 225°
2026-05-07 05:26 51.43407 6.33386 17079 ft 396 kts 208°
2026-05-07 05:27 51.40885 6.31713 17587 ft 399 kts 201°
2026-05-07 05:27 51.38252 6.30228 18074 ft 402 kts 200°
2026-05-07 05:27 51.35569 6.28715 18530 ft 405 kts 200°
2026-05-07 05:27 51.32941 6.27204 18959 ft 408 kts 201°
2026-05-07 05:28 51.30262 6.25645 19367 ft 410 kts 201°
2026-05-07 05:28 51.27573 6.24070 19780 ft 412 kts 201°
2026-05-07 05:28 51.24864 6.22485 20215 ft 415 kts 201°
2026-05-07 05:28 51.22148 6.20897 20635 ft 417 kts 201°
2026-05-07 05:29 51.19418 6.19299 21056 ft 419 kts 201°
2026-05-07 05:29 51.16665 6.17690 21448 ft 422 kts 201°
2026-05-07 05:29 51.13937 6.16098 21850 ft 424 kts 201°
2026-05-07 05:29 51.11128 6.14461 22252 ft 426 kts 201°
2026-05-07 05:30 51.08375 6.12859 22629 ft 428 kts 201°
2026-05-07 05:30 51.05539 6.11214 23011 ft 430 kts 201°
2026-05-07 05:30 51.02723 6.09550 23388 ft 432 kts 203°
2026-05-07 05:30 51.00084 6.07413 23712 ft 432 kts 212°
2026-05-07 05:31 50.97516 6.04887 24028 ft 434 kts 213°
2026-05-07 05:31 50.94945 6.02326 24336 ft 437 kts 212°
2026-05-07 05:31 50.92299 5.99944 24640 ft 439 kts 210°
2026-05-07 05:31 50.89604 5.97631 24946 ft 441 kts 209°
2026-05-07 05:32 50.86895 5.95325 25248 ft 443 kts 209°
2026-05-07 05:32 50.84165 5.93008 25564 ft 446 kts 209°
2026-05-07 05:32 50.81428 5.90683 25860 ft 448 kts 209°
2026-05-07 05:32 50.78683 5.88316 26157 ft 450 kts 210°
2026-05-07 05:33 50.75934 5.85944 26445 ft 452 kts 210°
2026-05-07 05:33 50.73173 5.83560 26716 ft 454 kts 210°
2026-05-07 05:33 50.70395 5.81163 26966 ft 456 kts 210°
2026-05-07 05:33 50.67603 5.78761 27209 ft 459 kts 210°
2026-05-07 05:34 50.64797 5.76351 27503 ft 459 kts 209°
2026-05-07 05:34 50.61983 5.73941 27846 ft 459 kts 209°
2026-05-07 05:34 50.59305 5.71365 28290 ft 454 kts 217°
2026-05-07 05:34 50.56987 5.68069 28890 ft 446 kts 229°
2026-05-07 05:35 50.55003 5.64379 29556 ft 437 kts 232°
2026-05-07 05:35 50.53099 5.60681 30090 ft 432 kts 232°
2026-05-07 05:35 50.51211 5.57020 30431 ft 430 kts 232°
2026-05-07 05:35 50.49316 5.53386 30712 ft 429 kts 232°
2026-05-07 05:36 50.47420 5.49772 30960 ft 428 kts 231°
2026-05-07 05:36 50.45519 5.46162 31190 ft 428 kts 231°
2026-05-07 05:36 50.43619 5.42561 31398 ft 428 kts 231°
2026-05-07 05:36 50.41723 5.38971 31608 ft 428 kts 231°
2026-05-07 05:37 50.39844 5.35422 31810 ft 428 kts 231°
2026-05-07 05:37 50.37941 5.31833 32013 ft 427 kts 231°
2026-05-07 05:37 50.36036 5.28242 32203 ft 427 kts 231°
2026-05-07 05:37 50.34132 5.24660 32382 ft 427 kts 231°
2026-05-07 05:38 50.32232 5.21090 32573 ft 427 kts 231°
2026-05-07 05:38 50.30328 5.17514 32739 ft 427 kts 231°
2026-05-07 05:38 50.28430 5.13958 32901 ft 427 kts 231°
2026-05-07 05:38 50.26523 5.10394 33038 ft 427 kts 231°
2026-05-07 05:39 50.24614 5.06827 33048 ft 427 kts 231°
2026-05-07 05:39 50.20801 4.99719 33016 ft 427 kts 231°
2026-05-07 05:40 50.16987 4.92624 33018 ft 427 kts 231°
2026-05-07 05:40 50.13168 4.85536 33015 ft 427 kts 231°
2026-05-07 05:41 50.09367 4.78511 33013 ft 427 kts 231°
2026-05-07 05:41 50.05534 4.71439 33021 ft 427 kts 231°
2026-05-07 05:42 50.01696 4.64379 33018 ft 427 kts 231°
2026-05-07 05:42 49.97881 4.57302 33016 ft 426 kts 234°
2026-05-07 05:43 49.94779 4.49535 33014 ft 425 kts 241°
2026-05-07 05:43 49.91836 4.41585 33017 ft 425 kts 241°
2026-05-07 05:44 49.88861 4.33649 33015 ft 425 kts 241°
2026-05-07 05:44 49.85854 4.25678 33047 ft 431 kts 241°
2026-05-07 05:45 49.82767 4.17753 33315 ft 433 kts 233°
2026-05-07 05:45 49.80622 4.14475 33357 ft 437 kts 216°
2026-05-07 05:45 49.77944 4.12240 33394 ft 440 kts 200°
2026-05-07 05:46 49.71952 4.10013 33499 ft 446 kts 192°
2026-05-07 05:46 49.65845 4.07942 33589 ft 451 kts 193°
2026-05-07 05:47 49.59707 4.05728 33757 ft 454 kts 194°
2026-05-07 05:47 49.56632 4.04609 33891 ft 454 kts 194°
2026-05-07 05:47 49.53557 4.03497 34017 ft 454 kts 194°
2026-05-07 05:47 49.50471 4.02380 34130 ft 454 kts 194°
2026-05-07 05:48 49.47429 4.01282 34258 ft 454 kts 194°
2026-05-07 05:48 49.44428 3.99823 34303 ft 452 kts 207°
2026-05-07 05:48 49.41803 3.97209 34365 ft 449 kts 223°
2026-05-07 05:48 49.39731 3.93639 34419 ft 446 kts 238°
2026-05-07 05:49 49.38323 3.89411 34464 ft 444 kts 252°
2026-05-07 05:49 49.36806 3.80243 34635 ft 443 kts 258°
2026-05-07 05:50 49.35386 3.71095 34816 ft 443 kts 257°
2026-05-07 05:50 49.33888 3.61928 34995 ft 443 kts 257°
2026-05-07 05:51 49.32371 3.52760 35024 ft 442 kts 257°
2026-05-07 05:51 49.30846 3.43599 35025 ft 443 kts 257°
2026-05-07 05:52 49.29318 3.34460 35025 ft 442 kts 256°
2026-05-07 05:52 49.27794 3.25389 35018 ft 442 kts 256°
2026-05-07 05:53 49.26251 3.16245 35018 ft 443 kts 256°
2026-05-07 05:53 49.24701 3.07113 35025 ft 442 kts 256°
2026-05-07 05:54 49.23145 2.98007 35027 ft 442 kts 256°
2026-05-07 05:54 49.21848 2.90447 35028 ft 443 kts 256°
2026-05-07 05:55 49.20024 2.79874 35038 ft 443 kts 256°
2026-05-07 05:55 49.18449 2.70784 35042 ft 443 kts 256°
2026-05-07 05:56 49.17134 2.63235 35043 ft 440 kts 256°
2026-05-07 05:56 49.15557 2.54227 35046 ft 439 kts 256°
2026-05-07 05:57 49.13973 2.45227 35050 ft 438 kts 256°
2026-05-07 05:57 49.12627 2.36148 35043 ft 437 kts 262°
2026-05-07 05:58 49.11779 2.26928 35041 ft 437 kts 263°
2026-05-07 05:58 49.10936 2.17726 35051 ft 437 kts 262°
2026-05-07 05:59 49.10078 2.08599 35052 ft 438 kts 262°
2026-05-07 05:59 49.08489 1.99692 35050 ft 438 kts 247°
2026-05-07 06:00 49.05953 1.91313 35045 ft 438 kts 246°
2026-05-07 06:00 49.03374 1.82870 35029 ft 438 kts 246°
2026-05-07 06:01 49.00818 1.74427 35025 ft 438 kts 246°
2026-05-07 06:01 48.98280 1.66058 35034 ft 438 kts 246°
2026-05-07 06:02 48.95722 1.57656 35033 ft 438 kts 246°
2026-05-07 06:02 48.93156 1.49267 35040 ft 437 kts 246°
2026-05-07 06:03 48.90583 1.40877 35044 ft 437 kts 246°
2026-05-07 06:03 48.88012 1.32516 35044 ft 436 kts 246°
2026-05-07 06:04 48.85436 1.24175 35043 ft 435 kts 246°
2026-05-07 06:04 48.82862 1.15858 35041 ft 435 kts 245°
2026-05-07 06:05 48.80277 1.07541 35041 ft 434 kts 245°
2026-05-07 06:05 48.77686 0.99239 35037 ft 435 kts 245°
2026-05-07 06:06 48.75106 0.90986 35032 ft 434 kts 245°
2026-05-07 06:06 48.72099 0.83008 35044 ft 434 kts 239°
2026-05-07 06:07 48.68945 0.75252 35039 ft 435 kts 239°
2026-05-07 06:07 48.65770 0.67441 35047 ft 435 kts 239°
2026-05-07 06:08 48.62597 0.59647 35042 ft 436 kts 239°
2026-05-07 06:08 48.59404 0.51835 35045 ft 436 kts 239°
2026-05-07 06:09 48.56210 0.44039 35056 ft 435 kts 239°
2026-05-07 06:09 48.53047 0.36332 35051 ft 434 kts 239°
2026-05-07 06:10 48.49855 0.28575 35048 ft 434 kts 239°
2026-05-07 06:10 48.46654 0.20821 35052 ft 435 kts 239°
2026-05-07 06:11 48.43449 0.13081 35039 ft 435 kts 239°
2026-05-07 06:11 48.40253 0.05390 35052 ft 435 kts 239°
2026-05-07 06:12 48.37038 -0.02331 35048 ft 435 kts 239°
2026-05-07 06:12 48.33542 -0.09755 35047 ft 435 kts 234°
2026-05-07 06:13 48.29926 -0.17038 35048 ft 436 kts 234°
2026-05-07 06:13 48.26307 -0.24322 35039 ft 435 kts 234°
2026-05-07 06:14 48.22650 -0.31542 35050 ft 434 kts 233°
2026-05-07 06:14 48.18960 -0.38751 35052 ft 435 kts 233°
2026-05-07 06:15 48.15274 -0.45944 35048 ft 434 kts 233°
2026-05-07 06:15 48.11604 -0.53092 35054 ft 434 kts 233°
2026-05-07 06:16 48.07912 -0.60265 35054 ft 434 kts 233°
2026-05-07 06:16 48.04219 -0.67427 35061 ft 434 kts 233°
2026-05-07 06:17 48.00526 -0.74571 35046 ft 435 kts 233°
2026-05-07 06:17 47.96816 -0.81721 35056 ft 435 kts 233°
2026-05-07 06:18 47.93131 -0.88809 35054 ft 434 kts 233°
2026-05-07 06:18 47.89415 -0.95942 35036 ft 435 kts 233°
2026-05-07 06:19 47.85695 -1.03049 35026 ft 435 kts 233°
2026-05-07 06:19 47.81995 -1.10105 35035 ft 435 kts 233°
2026-05-07 06:20 47.78273 -1.17191 35026 ft 435 kts 233°
2026-05-07 06:20 47.74540 -1.24268 35025 ft 435 kts 233°
2026-05-07 06:21 47.70800 -1.31338 35014 ft 436 kts 232°
2026-05-07 06:21 47.67057 -1.38399 35024 ft 436 kts 232°
2026-05-07 06:22 47.63315 -1.45451 35024 ft 436 kts 232°
2026-05-07 06:22 47.57526 -1.55802 35008 ft 434 kts 229°
2026-05-07 06:23 47.53475 -1.62472 35009 ft 435 kts 229°
2026-05-07 06:23 47.49446 -1.69088 35009 ft 435 kts 229°
2026-05-07 06:24 47.45397 -1.75727 35008 ft 434 kts 229°
2026-05-07 06:24 47.41334 -1.82375 35010 ft 435 kts 229°
2026-05-07 06:25 47.37278 -1.88983 35016 ft 435 kts 229°
2026-05-07 06:25 47.33162 -1.95515 35018 ft 434 kts 227°
2026-05-07 06:26 47.28968 -2.01921 35023 ft 435 kts 227°
2026-05-07 06:26 47.24779 -2.08287 35024 ft 435 kts 226°
2026-05-07 06:27 47.20573 -2.14669 35022 ft 434 kts 226°
2026-05-07 06:27 47.16363 -2.21047 35020 ft 434 kts 226°
2026-05-07 06:28 47.12153 -2.27399 35011 ft 434 kts 226°
2026-05-07 06:28 47.07964 -2.33706 35005 ft 433 kts 226°
2026-05-07 06:29 47.03756 -2.40035 35002 ft 433 kts 226°
2026-05-07 06:29 46.99536 -2.46356 35010 ft 433 kts 226°
2026-05-07 06:30 46.95336 -2.52623 35006 ft 433 kts 226°
2026-05-07 06:30 46.91102 -2.58910 35003 ft 433 kts 226°
2026-05-07 06:31 46.86874 -2.65196 35007 ft 433 kts 226°
2026-05-07 06:31 46.82649 -2.71475 35007 ft 433 kts 226°
2026-05-07 06:32 46.78421 -2.77739 35008 ft 433 kts 226°
2026-05-07 06:32 46.74198 -2.84006 35008 ft 433 kts 226°
2026-05-07 06:33 46.69967 -2.90259 35009 ft 433 kts 226°
2026-05-07 06:33 46.65729 -2.96493 35009 ft 433 kts 226°
2026-05-07 06:34 46.61511 -3.02682 35009 ft 434 kts 226°
2026-05-07 06:34 46.57251 -3.08885 35008 ft 433 kts 224°
2026-05-07 06:35 46.52619 -3.14511 35007 ft 434 kts 219°
2026-05-07 06:35 46.47921 -3.20012 35008 ft 433 kts 219°
2026-05-07 06:36 46.43237 -3.25504 35010 ft 433 kts 219°
2026-05-07 06:36 46.38555 -3.30978 35008 ft 432 kts 219°
2026-05-07 06:37 46.33874 -3.36446 35008 ft 432 kts 219°
2026-05-07 06:37 46.29191 -3.41907 35004 ft 431 kts 219°
2026-05-07 06:38 46.24540 -3.47312 35008 ft 431 kts 219°
2026-05-07 06:38 46.19859 -3.52745 35008 ft 431 kts 219°
2026-05-07 06:39 46.15162 -3.58179 35016 ft 432 kts 219°
2026-05-07 06:39 46.10484 -3.63579 35007 ft 431 kts 219°
2026-05-07 06:40 46.05799 -3.68970 35008 ft 431 kts 219°
2026-05-07 06:40 46.01495 -3.74865 35009 ft 431 kts 228°
2026-05-07 06:41 45.97505 -3.81286 35008 ft 431 kts 228°
2026-05-07 06:41 45.93502 -3.87691 35008 ft 431 kts 228°
2026-05-07 06:42 45.90144 -3.93031 35002 ft 430 kts 228°
2026-05-07 06:42 45.86153 -3.99365 35011 ft 429 kts 227°
2026-05-07 06:43 45.82145 -4.05709 35009 ft 429 kts 227°
2026-05-07 06:43 45.78133 -4.12050 35010 ft 429 kts 227°
2026-05-07 06:44 45.74116 -4.18378 35010 ft 429 kts 227°
2026-05-07 06:44 45.70099 -4.24693 35009 ft 429 kts 227°
2026-05-07 06:45 45.66073 -4.31008 35008 ft 429 kts 227°
2026-05-07 06:45 45.62081 -4.37263 35008 ft 428 kts 227°
2026-05-07 06:46 45.58061 -4.43535 35010 ft 428 kts 227°
2026-05-07 06:46 45.54027 -4.49801 35010 ft 428 kts 227°
2026-05-07 06:47 45.49992 -4.56062 35002 ft 428 kts 227°
2026-05-07 06:47 45.45965 -4.62308 35002 ft 428 kts 227°
2026-05-07 06:48 45.41927 -4.68548 35002 ft 428 kts 227°
2026-05-07 06:48 45.37893 -4.74776 34999 ft 428 kts 227°
2026-05-07 06:49 45.33855 -4.81001 34994 ft 428 kts 227°
2026-05-07 06:49 45.29811 -4.87209 34994 ft 428 kts 227°
2026-05-07 06:50 45.25788 -4.93378 34992 ft 428 kts 227°
2026-05-07 06:50 45.21741 -4.99592 34992 ft 428 kts 227°
2026-05-07 06:51 45.17685 -5.05796 34995 ft 429 kts 226°
2026-05-07 06:51 45.13620 -5.11992 34992 ft 429 kts 226°
2026-05-07 06:52 45.09547 -5.18177 34988 ft 429 kts 226°
2026-05-07 06:52 45.05476 -5.24353 34982 ft 430 kts 226°
2026-05-07 06:53 45.01394 -5.30529 34983 ft 429 kts 226°
2026-05-07 06:53 44.97312 -5.36689 34986 ft 430 kts 226°
2026-05-07 06:54 44.93217 -5.42854 34976 ft 430 kts 226°
2026-05-07 06:54 44.89151 -5.48966 34977 ft 430 kts 226°
2026-05-07 06:55 44.85016 -5.55159 34974 ft 430 kts 226°
2026-05-07 06:55 44.80940 -5.61258 34972 ft 430 kts 226°
2026-05-07 06:56 44.76831 -5.67395 34977 ft 430 kts 226°
2026-05-07 06:56 44.72723 -5.73512 34980 ft 431 kts 226°
2026-05-07 06:57 44.68604 -5.79637 34967 ft 431 kts 226°
2026-05-07 06:57 44.64344 -5.85509 34969 ft 432 kts 220°
2026-05-07 06:58 44.59746 -5.90919 34964 ft 432 kts 219°
2026-05-07 06:58 44.55144 -5.96311 34963 ft 431 kts 219°
2026-05-07 06:59 44.50537 -6.01707 34965 ft 431 kts 219°
2026-05-07 06:59 44.45939 -6.07088 34966 ft 431 kts 219°
2026-05-07 07:00 44.41334 -6.12461 34961 ft 432 kts 219°
2026-05-07 07:00 44.36750 -6.17801 34959 ft 432 kts 219°
2026-05-07 07:01 44.32134 -6.23169 34958 ft 431 kts 219°
2026-05-07 07:01 44.27513 -6.28533 34950 ft 432 kts 219°
2026-05-07 07:02 44.22894 -6.33875 34948 ft 433 kts 219°
2026-05-07 07:02 44.18255 -6.39233 34946 ft 431 kts 219°
2026-05-07 07:03 44.13647 -6.44541 34946 ft 432 kts 219°
2026-05-07 07:03 44.09012 -6.49876 34944 ft 434 kts 220°
2026-05-07 07:04 44.04359 -6.55217 34945 ft 434 kts 220°
2026-05-07 07:04 43.99689 -6.60567 34936 ft 434 kts 220°
2026-05-07 07:05 43.95013 -6.65912 34934 ft 435 kts 220°
2026-05-07 07:05 43.90371 -6.71207 34931 ft 435 kts 220°
2026-05-07 07:06 43.85694 -6.76531 34933 ft 434 kts 219°
2026-05-07 07:06 43.81016 -6.81842 34929 ft 436 kts 219°
2026-05-07 07:07 43.76304 -6.87183 34927 ft 438 kts 220°
2026-05-07 07:07 43.71590 -6.92512 34925 ft 438 kts 220°
2026-05-07 07:08 43.66867 -6.97841 34927 ft 438 kts 220°
2026-05-07 07:08 43.62170 -7.03131 34931 ft 438 kts 220°
2026-05-07 07:09 43.57441 -7.08450 34927 ft 438 kts 220°
2026-05-07 07:09 43.52707 -7.13762 34929 ft 438 kts 220°
2026-05-07 07:10 43.47969 -7.19066 34932 ft 439 kts 220°
2026-05-07 07:10 43.43221 -7.24367 34929 ft 441 kts 220°
2026-05-07 07:11 43.38432 -7.29699 34931 ft 444 kts 220°
2026-05-07 07:11 43.33623 -7.35049 34933 ft 444 kts 220°
2026-05-07 07:12 43.28815 -7.40391 34932 ft 444 kts 220°
2026-05-07 07:12 43.24031 -7.45692 34932 ft 444 kts 220°
2026-05-07 07:13 43.19213 -7.51012 34929 ft 444 kts 220°
2026-05-07 07:13 43.14392 -7.56326 34931 ft 445 kts 220°
2026-05-07 07:14 43.09562 -7.61650 34922 ft 447 kts 221°
2026-05-07 07:14 43.04722 -7.66966 34931 ft 450 kts 221°
2026-05-07 07:15 42.99839 -7.72316 34930 ft 450 kts 221°
2026-05-07 07:15 42.94954 -7.77654 34926 ft 450 kts 221°
2026-05-07 07:16 42.90061 -7.83000 34933 ft 450 kts 221°
2026-05-07 07:16 42.85173 -7.88327 34931 ft 450 kts 221°
2026-05-07 07:17 42.80277 -7.93649 34929 ft 450 kts 221°
2026-05-07 07:17 42.75373 -7.98966 34932 ft 450 kts 221°
2026-05-07 07:18 42.70486 -8.04258 34930 ft 452 kts 221°
2026-05-07 07:18 42.65561 -8.09578 34922 ft 452 kts 221°
2026-05-07 07:19 42.60638 -8.14886 34918 ft 452 kts 221°
2026-05-07 07:19 42.55705 -8.20190 34918 ft 452 kts 221°
2026-05-07 07:20 42.50775 -8.25484 34918 ft 452 kts 221°
2026-05-07 07:20 42.45841 -8.30760 34912 ft 453 kts 221°
2026-05-07 07:21 42.40904 -8.36043 34901 ft 454 kts 222°
2026-05-07 07:21 42.35968 -8.41311 34911 ft 455 kts 222°
2026-05-07 07:22 42.30993 -8.46605 34906 ft 455 kts 222°
2026-05-07 07:22 42.26015 -8.51894 34907 ft 455 kts 222°
2026-05-07 07:23 42.21032 -8.57179 34904 ft 455 kts 222°
2026-05-07 07:23 42.16076 -8.62424 34903 ft 455 kts 222°
2026-05-07 07:24 42.11092 -8.67683 34897 ft 455 kts 222°
2026-05-07 07:24 42.06103 -8.72941 34880 ft 456 kts 223°
2026-05-07 07:25 41.98620 -8.80803 34898 ft 454 kts 223°
2026-05-07 07:26 41.93669 -8.85995 34898 ft 454 kts 223°
2026-05-07 07:26 41.88685 -8.91209 34903 ft 454 kts 223°
2026-05-07 07:27 41.83636 -8.96325 34895 ft 455 kts 221°
2026-05-07 07:27 41.78549 -9.01392 34900 ft 455 kts 221°
2026-05-07 07:28 41.73496 -9.06416 34899 ft 455 kts 221°
2026-05-07 07:28 41.68409 -9.11464 34897 ft 455 kts 221°
2026-05-07 07:29 41.63329 -9.16495 34901 ft 454 kts 221°
2026-05-07 07:29 41.58242 -9.21527 34898 ft 455 kts 222°
2026-05-07 07:30 41.54008 -9.25711 34910 ft 455 kts 222°
2026-05-07 07:30 41.48920 -9.30754 34910 ft 455 kts 222°
2026-05-07 07:31 41.43833 -9.35780 34909 ft 455 kts 222°
2026-05-07 07:31 41.38744 -9.40793 34902 ft 455 kts 222°
2026-05-07 07:32 41.33641 -9.45820 34908 ft 456 kts 222°
2026-05-07 07:32 41.28547 -9.50825 34903 ft 455 kts 223°
2026-05-07 07:33 41.23480 -9.55793 34919 ft 454 kts 223°
2026-05-07 07:33 41.18383 -9.60788 34918 ft 454 kts 223°
2026-05-07 07:34 41.13290 -9.65765 34910 ft 453 kts 223°
2026-05-07 07:34 41.08246 -9.70704 34925 ft 453 kts 223°
2026-05-07 07:35 41.03166 -9.75661 34929 ft 453 kts 223°
2026-05-07 07:35 40.98080 -9.80601 34931 ft 453 kts 223°
2026-05-07 07:36 40.92997 -9.85531 34917 ft 450 kts 223°
2026-05-07 07:36 40.87954 -9.90408 34928 ft 448 kts 224°
2026-05-07 07:37 40.82925 -9.95271 34934 ft 448 kts 224°
2026-05-07 07:37 40.77887 -10.00130 34942 ft 448 kts 224°
2026-05-07 07:38 40.72884 -10.04941 34947 ft 448 kts 224°
2026-05-07 07:38 40.67846 -10.09779 34935 ft 447 kts 224°
2026-05-07 07:39 40.62827 -10.14596 34953 ft 446 kts 224°
2026-05-07 07:39 40.57808 -10.19398 34940 ft 446 kts 224°
2026-05-07 07:40 40.52789 -10.24185 34942 ft 443 kts 224°
2026-05-07 07:40 40.47804 -10.28939 34948 ft 443 kts 224°
2026-05-07 07:41 40.42818 -10.33684 34938 ft 442 kts 224°
2026-05-07 07:41 40.37868 -10.38387 34951 ft 442 kts 224°
2026-05-07 07:42 40.32885 -10.43110 34953 ft 442 kts 224°
2026-05-07 07:42 40.27903 -10.47827 34954 ft 442 kts 224°
2026-05-07 07:43 40.22912 -10.52544 34956 ft 442 kts 224°
2026-05-07 07:43 40.17917 -10.57249 34956 ft 442 kts 223°
2026-05-07 07:44 40.12982 -10.61891 34953 ft 439 kts 223°
2026-05-07 07:44 40.08023 -10.66549 34958 ft 438 kts 223°
2026-05-07 07:45 40.03058 -10.71205 34961 ft 439 kts 223°
2026-05-07 07:45 39.98123 -10.75820 34958 ft 438 kts 223°
2026-05-07 07:46 39.93163 -10.80453 34953 ft 438 kts 223°
2026-05-07 07:46 39.88209 -10.85069 34959 ft 438 kts 223°
2026-05-07 07:47 39.83241 -10.89694 34965 ft 438 kts 223°
2026-05-07 07:47 39.78289 -10.94299 34945 ft 438 kts 223°
2026-05-07 07:48 39.73351 -10.98877 34961 ft 435 kts 223°
2026-05-07 07:48 39.68437 -11.03427 34960 ft 434 kts 223°
2026-05-07 07:49 39.63548 -11.07939 34960 ft 434 kts 223°
2026-05-07 07:49 39.58630 -11.12479 34960 ft 434 kts 223°
2026-05-07 07:50 39.53712 -11.17013 34966 ft 434 kts 223°
2026-05-07 07:50 39.48777 -11.21527 34971 ft 434 kts 223°
2026-05-07 07:51 39.43893 -11.26020 34969 ft 433 kts 223°
2026-05-07 07:51 39.38976 -11.30531 34969 ft 433 kts 223°
2026-05-07 07:52 39.34077 -11.35005 34969 ft 429 kts 223°
2026-05-07 07:52 39.29203 -11.39462 34972 ft 429 kts 223°
2026-05-07 07:53 39.24319 -11.43911 34972 ft 429 kts 223°
2026-05-07 07:53 39.19449 -11.48345 34969 ft 428 kts 223°
2026-05-07 07:54 39.14576 -11.52768 34972 ft 428 kts 223°
2026-05-07 07:54 39.09706 -11.57180 34972 ft 428 kts 223°
2026-05-07 07:55 39.04830 -11.61588 34971 ft 428 kts 223°
2026-05-07 07:55 38.99954 -11.66000 34973 ft 428 kts 223°
2026-05-07 07:56 38.95093 -11.70393 34971 ft 427 kts 223°
2026-05-07 07:56 38.90262 -11.74748 34975 ft 426 kts 223°
2026-05-07 07:57 38.85397 -11.79125 34976 ft 427 kts 223°
2026-05-07 07:57 38.80529 -11.83494 34975 ft 427 kts 222°
2026-05-07 07:58 38.75663 -11.87857 34981 ft 427 kts 222°
2026-05-07 07:58 38.70823 -11.92182 34972 ft 426 kts 222°
2026-05-07 07:59 38.65966 -11.96518 34978 ft 426 kts 222°
2026-05-07 07:59 38.61098 -12.00869 34978 ft 426 kts 222°
2026-05-07 08:00 38.56233 -12.05199 34978 ft 424 kts 222°
2026-05-07 08:00 38.51413 -12.09481 34982 ft 422 kts 222°
2026-05-07 08:01 38.46624 -12.13726 34971 ft 420 kts 222°
2026-05-07 08:01 38.41813 -12.17985 34977 ft 420 kts 222°
2026-05-07 08:02 38.36998 -12.22240 34982 ft 420 kts 222°
2026-05-07 08:02 38.32191 -12.26483 34982 ft 420 kts 222°
2026-05-07 08:03 38.27383 -12.30723 34982 ft 420 kts 222°
2026-05-07 08:03 38.22575 -12.34954 34976 ft 420 kts 222°
2026-05-07 08:04 38.17802 -12.39145 34989 ft 419 kts 222°
2026-05-07 08:04 38.13016 -12.43341 34984 ft 416 kts 221°
2026-05-07 08:05 38.08243 -12.47521 34987 ft 416 kts 221°
2026-05-07 08:05 38.03509 -12.51660 34986 ft 416 kts 221°
2026-05-07 08:06 37.98741 -12.55820 34989 ft 415 kts 221°
2026-05-07 08:06 37.93994 -12.59953 34983 ft 413 kts 221°
2026-05-07 08:07 37.89253 -12.64079 34991 ft 413 kts 221°
2026-05-07 08:07 37.84512 -12.68198 34994 ft 413 kts 221°
2026-05-07 08:08 37.79765 -12.72316 34994 ft 413 kts 221°
2026-05-07 08:08 37.75021 -12.76422 34994 ft 413 kts 221°
2026-05-07 08:09 37.70317 -12.80485 34990 ft 410 kts 221°
2026-05-07 08:09 37.65596 -12.84566 34996 ft 410 kts 221°
2026-05-07 08:10 37.60882 -12.88627 34992 ft 410 kts 221°
2026-05-07 08:10 37.56165 -12.92684 34993 ft 410 kts 221°
2026-05-07 08:11 37.51449 -12.96732 34993 ft 410 kts 221°
2026-05-07 08:11 37.46759 -13.00756 34971 ft 410 kts 221°
2026-05-07 08:12 37.42038 -13.04796 34989 ft 410 kts 220°
2026-05-07 08:12 37.37321 -13.08829 34998 ft 410 kts 220°
2026-05-07 08:13 37.32597 -13.12864 34999 ft 410 kts 220°
2026-05-07 08:13 37.27878 -13.16889 34998 ft 410 kts 220°
2026-05-07 08:14 37.23152 -13.20910 35005 ft 410 kts 220°
2026-05-07 08:14 37.18426 -13.24927 34991 ft 411 kts 220°
2026-05-07 08:15 37.13721 -13.28924 35003 ft 411 kts 220°
2026-05-07 08:15 37.08989 -13.32932 35005 ft 411 kts 220°
2026-05-07 08:16 37.04246 -13.36941 35008 ft 411 kts 220°
2026-05-07 08:16 36.99507 -13.40943 35010 ft 411 kts 220°
2026-05-07 08:17 36.94772 -13.44936 35005 ft 411 kts 220°
2026-05-07 08:17 36.90824 -13.48261 35005 ft 411 kts 220°
2026-05-07 08:18 36.85320 -13.52888 35005 ft 408 kts 220°
2026-05-07 08:18 36.81375 -13.56200 35012 ft 408 kts 220°
2026-05-07 08:19 36.76656 -13.60158 35013 ft 408 kts 220°
2026-05-07 08:19 36.71969 -13.64084 35010 ft 408 kts 220°
2026-05-07 08:20 36.67244 -13.68031 35002 ft 409 kts 220°
2026-05-07 08:20 36.62500 -13.71989 35009 ft 410 kts 220°
2026-05-07 08:21 36.57759 -13.75939 35010 ft 410 kts 220°
2026-05-07 08:21 36.53052 -13.79859 35012 ft 410 kts 220°
2026-05-07 08:22 36.48309 -13.83799 35016 ft 410 kts 220°
2026-05-07 08:22 36.43574 -13.87726 35017 ft 407 kts 220°
2026-05-07 08:23 36.38856 -13.91636 35004 ft 408 kts 220°
2026-05-07 08:23 36.34131 -13.95545 35016 ft 408 kts 220°
2026-05-07 08:24 36.29438 -13.99419 35020 ft 408 kts 220°
2026-05-07 08:24 36.24708 -14.03319 35021 ft 408 kts 220°
2026-05-07 08:25 36.19983 -14.07210 35023 ft 408 kts 220°
2026-05-07 08:25 36.15249 -14.11103 35020 ft 408 kts 220°
2026-05-07 08:26 36.08191 -14.16898 35018 ft 407 kts 220°
2026-05-07 08:26 36.03466 -14.20768 35021 ft 407 kts 220°
2026-05-07 08:27 35.98750 -14.24625 35023 ft 405 kts 220°
2026-05-07 08:27 35.94056 -14.28464 35025 ft 405 kts 220°
2026-05-07 08:28 35.89356 -14.32298 35027 ft 405 kts 220°
2026-05-07 08:28 35.84646 -14.36135 35013 ft 406 kts 220°
2026-05-07 08:29 35.79967 -14.39938 35019 ft 406 kts 220°
2026-05-07 08:29 35.75257 -14.43766 35025 ft 406 kts 220°
2026-05-07 08:30 35.70539 -14.47592 35022 ft 406 kts 220°
2026-05-07 08:30 35.65830 -14.51406 35025 ft 406 kts 220°
2026-05-07 08:31 35.61033 -14.55106 35001 ft 407 kts 218°
2026-05-07 08:31 35.56171 -14.58697 35036 ft 406 kts 218°
2026-05-07 08:32 35.51332 -14.62266 35035 ft 405 kts 218°
2026-05-07 08:32 35.46496 -14.65835 35035 ft 405 kts 218°
2026-05-07 08:33 35.41695 -14.69371 35037 ft 405 kts 218°
2026-05-07 08:33 35.36857 -14.72928 35036 ft 405 kts 218°
2026-05-07 08:34 35.32017 -14.76480 35018 ft 407 kts 218°
2026-05-07 08:34 35.27148 -14.80053 35036 ft 408 kts 217°
2026-05-07 08:35 35.22271 -14.83621 35038 ft 408 kts 217°
2026-05-07 08:35 35.17394 -14.87185 35039 ft 408 kts 217°
2026-05-07 08:36 35.12524 -14.90743 35037 ft 408 kts 217°
2026-05-07 08:36 35.07674 -14.94280 35044 ft 408 kts 217°
2026-05-07 08:37 35.02815 -14.97817 35038 ft 406 kts 217°
2026-05-07 08:37 34.97969 -15.01343 35039 ft 405 kts 217°
2026-05-07 08:38 34.93124 -15.04862 35039 ft 405 kts 217°
2026-05-07 08:38 34.88265 -15.08383 35042 ft 405 kts 217°
2026-05-07 08:39 34.83432 -15.11882 35042 ft 405 kts 217°
2026-05-07 08:39 34.78584 -15.15389 35022 ft 407 kts 217°
2026-05-07 08:40 34.73702 -15.18915 35036 ft 408 kts 217°
2026-05-07 08:40 34.68816 -15.22437 35043 ft 408 kts 217°
2026-05-07 08:41 34.63934 -15.25953 35044 ft 408 kts 217°
2026-05-07 08:41 34.59052 -15.29464 35044 ft 408 kts 217°
2026-05-07 08:42 34.54197 -15.32947 35048 ft 408 kts 217°
2026-05-07 08:42 34.49305 -15.36462 35038 ft 410 kts 217°
2026-05-07 08:43 34.44390 -15.39983 35048 ft 410 kts 217°
2026-05-07 08:43 34.39507 -15.43473 34744 ft 407 kts 217°
2026-05-07 08:44 34.37066 -15.45221 34490 ft 409 kts 217°
2026-05-07 08:44 34.34605 -15.46981 34251 ft 410 kts 217°
2026-05-07 08:44 34.32140 -15.48741 34007 ft 411 kts 217°
2026-05-07 08:44 34.29672 -15.50501 33737 ft 412 kts 217°
2026-05-07 08:45 34.27199 -15.52264 33469 ft 413 kts 217°
2026-05-07 08:45 34.24720 -15.54028 33168 ft 413 kts 217°
2026-05-07 08:45 34.22259 -15.55781 32906 ft 417 kts 217°
2026-05-07 08:45 34.19756 -15.57562 32646 ft 418 kts 216°
2026-05-07 08:46 34.17248 -15.59346 32385 ft 419 kts 216°
2026-05-07 08:46 34.14729 -15.61134 32131 ft 419 kts 216°
2026-05-07 08:46 34.12215 -15.62917 31857 ft 420 kts 216°
2026-05-07 08:46 34.09706 -15.64695 31319 ft 416 kts 216°
2026-05-07 08:47 34.07210 -15.66464 30672 ft 414 kts 216°
2026-05-07 08:47 34.04731 -15.68222 30021 ft 413 kts 216°
2026-05-07 08:47 34.02264 -15.69968 29313 ft 410 kts 216°
2026-05-07 08:47 33.99811 -15.71702 28654 ft 407 kts 216°
2026-05-07 08:48 33.97375 -15.73424 28055 ft 403 kts 216°
2026-05-07 08:48 33.94943 -15.75145 27487 ft 406 kts 216°
2026-05-07 08:48 33.92515 -15.76860 26909 ft 402 kts 215°
2026-05-07 08:48 33.90107 -15.78560 26337 ft 399 kts 215°
2026-05-07 08:49 33.87755 -15.80218 25775 ft 396 kts 215°
2026-05-07 08:49 33.85391 -15.81882 25228 ft 392 kts 215°
2026-05-07 08:49 33.83043 -15.83535 24672 ft 389 kts 215°
2026-05-07 08:49 33.80713 -15.85174 24096 ft 387 kts 214°
2026-05-07 08:50 33.78386 -15.86809 23509 ft 386 kts 214°
2026-05-07 08:50 33.76077 -15.88429 22866 ft 383 kts 214°
2026-05-07 08:50 33.73785 -15.90037 22257 ft 379 kts 214°
2026-05-07 08:50 33.71515 -15.91630 21670 ft 376 kts 214°
2026-05-07 08:51 33.69267 -15.93209 21100 ft 372 kts 214°
2026-05-07 08:51 33.67043 -15.94773 20542 ft 368 kts 215°
2026-05-07 08:51 33.64887 -15.96396 20030 ft 363 kts 216°
2026-05-07 08:51 33.62796 -15.98005 19540 ft 360 kts 216°
2026-05-07 08:52 33.60695 -15.99622 19064 ft 357 kts 216°
2026-05-07 08:52 33.58610 -16.01225 18604 ft 355 kts 216°
2026-05-07 08:52 33.56531 -16.02821 18112 ft 353 kts 216°
2026-05-07 08:52 33.54463 -16.04406 17615 ft 352 kts 216°
2026-05-07 08:53 33.52401 -16.05986 17130 ft 351 kts 216°
2026-05-07 08:53 33.50342 -16.07561 16656 ft 350 kts 216°
2026-05-07 08:53 33.48299 -16.09124 16192 ft 348 kts 216°
2026-05-07 08:53 33.46259 -16.10684 15737 ft 347 kts 216°
2026-05-07 08:54 33.44227 -16.12236 15303 ft 345 kts 216°
2026-05-07 08:54 33.42232 -16.13759 14872 ft 344 kts 216°
2026-05-07 08:54 33.40189 -16.15317 14404 ft 344 kts 216°
2026-05-07 08:54 33.38198 -16.16836 13945 ft 344 kts 216°
2026-05-07 08:55 33.36183 -16.18371 13459 ft 343 kts 216°
2026-05-07 08:55 33.34168 -16.19906 12993 ft 342 kts 216°
2026-05-07 08:55 33.32171 -16.21427 12546 ft 340 kts 216°
2026-05-07 08:55 33.30177 -16.22943 12071 ft 340 kts 215°
2026-05-07 08:56 33.28182 -16.24459 11615 ft 339 kts 215°
2026-05-07 08:56 33.26193 -16.25970 11204 ft 334 kts 215°
2026-05-07 08:56 33.24265 -16.27433 10971 ft 321 kts 215°
2026-05-07 08:56 33.22419 -16.28832 10771 ft 307 kts 216°
2026-05-07 08:57 33.20656 -16.30169 10616 ft 293 kts 216°
2026-05-07 08:57 33.18960 -16.31456 10368 ft 284 kts 216°
2026-05-07 08:57 33.17344 -16.32713 10020 ft 278 kts 218°
2026-05-07 08:57 33.15762 -16.34027 9611 ft 275 kts 218°
2026-05-07 08:58 33.14192 -16.35338 9184 ft 274 kts 218°
2026-05-07 08:58 33.12625 -16.36642 8795 ft 274 kts 217°
2026-05-07 08:58 33.11060 -16.37943 8418 ft 274 kts 217°
2026-05-07 08:58 33.09497 -16.39240 8059 ft 273 kts 217°
2026-05-07 08:59 33.07939 -16.40531 7724 ft 272 kts 217°
2026-05-07 08:59 33.06387 -16.41817 7382 ft 271 kts 217°
2026-05-07 08:59 33.04837 -16.43101 7032 ft 270 kts 217°
2026-05-07 08:59 33.03313 -16.44362 6702 ft 270 kts 216°
2026-05-07 09:00 33.01766 -16.45642 6349 ft 270 kts 216°
2026-05-07 09:00 33.00222 -16.46919 5972 ft 270 kts 216°
2026-05-07 09:00 32.98681 -16.48194 5614 ft 268 kts 217°
2026-05-07 09:00 32.97149 -16.49461 5268 ft 267 kts 216°
2026-05-07 09:01 32.95626 -16.50718 4928 ft 265 kts 216°
2026-05-07 09:01 32.94116 -16.51962 4579 ft 263 kts 217°
2026-05-07 09:01 32.92611 -16.53205 4283 ft 263 kts 217°
2026-05-07 09:01 32.91109 -16.54444 4053 ft 262 kts 217°
2026-05-07 09:02 32.89631 -16.55664 3863 ft 262 kts 216°
2026-05-07 09:02 32.88149 -16.56883 3649 ft 256 kts 216°
2026-05-07 09:02 32.86709 -16.58069 3414 ft 248 kts 216°
2026-05-07 09:02 32.85315 -16.59216 3156 ft 238 kts 217°
2026-05-07 09:03 32.83987 -16.60314 2970 ft 230 kts 217°
2026-05-07 09:03 32.82713 -16.61372 2819 ft 225 kts 217°
2026-05-07 09:03 32.81438 -16.62427 2653 ft 209 kts 217°
2026-05-07 09:03 32.80301 -16.63370 2563 ft 191 kts 217°
2026-05-07 09:04 32.79252 -16.64243 2394 ft 179 kts 217°
2026-05-07 09:04 32.78211 -16.65107 2219 ft 187 kts 217°
2026-05-07 09:04 32.77138 -16.65993 2095 ft 190 kts 217°
2026-05-07 09:04 32.76069 -16.66875 2011 ft 189 kts 217°
2026-05-07 09:05 32.74992 -16.67769 1940 ft 189 kts 217°
2026-05-07 09:05 32.73947 -16.68629 1892 ft 173 kts 217°
2026-05-07 09:05 32.72989 -16.69382 1821 ft 158 kts 215°
2026-05-07 09:05 32.72076 -16.70100 1709 ft 155 kts 214°
2026-05-07 09:06 32.71198 -16.70823 1550 ft 153 kts 215°
2026-05-07 09:06 32.70327 -16.71550 1377 ft 153 kts 215°
2026-05-07 09:06 32.69750 -16.72032 1261 ft 153 kts 215°
2026-05-07 09:06 32.68880 -16.72758 1084 ft 151 kts 215°
2026-05-07 09:07 32.68030 -16.73462 973 ft 149 kts 215°
2026-05-07 09:07 32.67173 -16.74162 971 ft 149 kts 215°
2026-05-07 09:07 32.66314 -16.74861 983 ft 150 kts 215°
2026-05-07 09:07 32.65459 -16.75566 987 ft 150 kts 215°
2026-05-07 09:08 32.64606 -16.76277 991 ft 151 kts 216°
2026-05-07 09:08 32.63996 -16.77261 988 ft 150 kts 247°
2026-05-07 09:08 32.63820 -16.78471 1006 ft 148 kts 276°
2026-05-07 09:08 32.64220 -16.79553 1034 ft 146 kts 311°
2026-05-07 09:09 32.65075 -16.80154 1029 ft 145 kts 346°
2026-05-07 09:09 32.66065 -16.80232 856 ft 141 kts
2026-05-07 09:09 32.67035 -16.80064 699 ft 141 kts 15°
2026-05-07 09:09 32.67911 -16.79565 474 ft 140 kts 33°
2026-05-07 09:10 32.68636 -16.78805 309 ft 139 kts 45°
2026-05-07 09:10 32.69312 -16.78000 181 ft 132 kts 43°
2026-05-07 09:10 32.69867 -16.77356 195 ft 85 kts 45°
2026-05-07 09:10 32.70146 -16.77027 199 ft 28 kts 45°
2026-05-07 09:11 32.70222 -16.76937 202 ft 14 kts 45°
2026-05-07 09:11 32.70298 -16.76850 200 ft 16 kts 36°
2026-05-07 09:11 32.70397 -16.76809 206 ft 9 kts 37°
2026-05-07 09:11 32.70392 -16.76747 203 ft 10 kts 166°
2026-05-07 09:12 32.70354 -16.76779 194 ft 8 kts 227°
2026-05-07 09:12 32.70314 -16.76830 198 ft 9 kts 226°
2026-05-07 09:12 32.70262 -16.76891 204 ft 12 kts 225°
2026-05-07 09:12 32.70199 -16.76967 200 ft 14 kts 225°
2026-05-07 09:13 32.70128 -16.77051 194 ft 15 kts 225°
2026-05-07 09:13 32.70052 -16.77139 197 ft 11 kts 224°
2026-05-07 09:13 32.70016 -16.77177 196 ft 6 kts 209°
2026-05-07 09:13 32.69972 -16.77183 193 ft 7 kts 177°
2026-05-07 09:14 32.69916 -16.77180 193 ft 9 kts 177°
2026-05-07 09:14 32.69856 -16.77180 191 ft 8 kts 193°
2026-05-07 09:14 32.69801 -16.77225 185 ft 11 kts 227°
2026-05-07 09:14 32.69751 -16.77288 180 ft 10 kts 227°
2026-05-07 09:15 32.69705 -16.77348 175 ft 10 kts 226°
2026-05-07 09:15 32.69651 -16.77411 174 ft 12 kts 225°
2026-05-07 09:15 32.69590 -16.77484 174 ft 13 kts 225°
2026-05-07 09:15 32.69522 -16.77568 174 ft 15 kts 226°
2026-05-07 09:16 32.69466 -16.77638 174 ft 2 kts 220°
2026-05-07 09:16 32.69449 -16.77630 175 ft 3 kts 136°
2026-05-07 09:16 32.69429 -16.77608 175 ft 5 kts 138°
2026-05-07 09:16 32.69413 -16.77592 175 ft 1 kts 137°
2026-05-07 09:17 32.69413 -16.77591 175 ft 0 kts 137°